EW9931 Weather Reports


Display with metric or nautical units.
time (UTC)temp
F
wind
direction
speed
MPH
gust
MPH
rain 1hr
in
rain 24hr
in
rain mn
in
humidity
%
barometer
mb
20260905061524 55 179 0.0 0.0 0.00 0.00 0.00 28 1004.5
20260905060037 55 150 0.0 0.0 0.00 0.00 0.00 27 1004.5
20260905054520 55 126 0.0 0.0 0.00 0.00 0.00 27 1004.4
20260905053019 55 133 0.0 0.0 0.00 0.00 0.00 27 1004.6
20260905051524 55 152 0.0 0.0 0.00 0.00 0.00 27 1004.6
20260905050021 56 131 0.0 0.0 0.00 0.00 0.00 28 1005.2
20260905044521 56 147 0.0 0.0 0.00 0.00 0.00 26 1005.1
20260905043016 56 157 0.0 0.0 0.00 0.00 0.00 26 1004.9
20260905041515 56 152 0.0 0.0 0.00 0.00 0.00 27 1004.8
20260905040014 56 145 0.0 0.0 0.00 0.00 0.00 28 1005.1
20260905034516 56 124 0.0 0.0 0.00 0.00 0.00 30 1004.9
20260905033013 56 164 0.0 0.0 0.00 0.00 0.00 34 1004.9
20260905031517 56 174 0.0 0.0 0.00 0.00 0.00 35 1004.5
20260905030015 56 160 0.0 0.0 0.00 0.00 0.00 34 1004.6
20260905024514 56 150 0.0 0.0 0.00 0.00 0.00 37 1004.7
20260905023015 56 137 0.0 0.0 0.00 0.00 0.00 40 1004.6
20260905021517 56 154 0.0 0.0 0.00 0.00 0.00 46 1004.4
20260905020007 56 193 0.0 0.0 0.00 0.00 0.00 50 1004.9
20260905014508 57 209 1.0 0.0 0.00 0.00 0.00 51 1005.0
20260905013003 57 205 2.0 0.0 0.00 0.00 0.00 48 1005.1
20260905011500 58 203 2.0 0.0 0.00 0.00 0.00 46 1004.6
20260905010100 59 210 3.0 0.0 0.00 0.00 0.00 42 1004.7
20260905004559 59 193 4.0 0.0 0.00 0.00 0.00 39 1004.9
20260905003059 60 278 4.0 0.0 0.00 0.00 0.00 36 1004.3
20260905001608 61 212 4.0 0.0 0.00 0.00 0.00 33 1004.6
20260904234557 62 202 3.0 0.0 0.00 0.00 0.00 30 1003.9
20260904233106 63 136 3.0 0.0 0.00 0.00 0.00 31 1004.1
20260904231556 63 205 3.0 0.0 0.00 0.00 0.00 28 1004.2
20260904230055 63 230 3.0 0.0 0.00 0.00 0.00 28 1004.3
20260904224554 64 208 3.0 0.0 0.00 0.00 0.00 28 1004.2
20260904223057 65 205 2.0 0.0 0.00 0.00 0.00 27 1004.3
20260904221555 64 106 3.0 0.0 0.00 0.00 0.00 26 1004.3
20260904220106 64 116 3.0 0.0 0.00 0.00 0.00 23 1004.4
20260904214553 64 213 3.0 0.0 0.00 0.00 0.00 26 1004.5
20260904213052 64 202 3.0 0.0 0.00 0.00 0.00 24 1004.5
20260904211551 65 220 2.0 0.0 0.00 0.00 0.00 26 1004.3
20260904210056 65 232 2.0 0.0 0.00 0.00 0.00 23 1004.1
20260904204548 66 162 2.0 0.0 0.00 0.00 0.00 22 1004.1
20260904203049 66 210 2.0 0.0 0.00 0.00 0.00 21 1004.2
20260904201558 65 186 2.0 0.0 0.00 0.00 0.00 23 1004.0
20260904200045 65 236 1.0 0.0 0.00 0.00 0.00 20 1004.0
20260904194538 64 131 3.0 0.0 0.00 0.00 0.00 24 1004.1
20260904193035 64 172 2.0 0.0 0.00 0.00 0.00 24 1004.3
20260904191535 63 198 4.0 0.0 0.00 0.00 0.00 24 1004.3
20260904190026 63 220 4.0 0.0 0.00 0.00 0.00 23 1005.0
20260904184525 63 248 3.0 0.0 0.00 0.00 0.00 22 1004.3
20260904183021 62 202 3.0 0.0 0.00 0.00 0.00 21 1004.6
20260904181516 63 141 2.0 0.0 0.00 0.00 0.00 22 1004.6
20260904180014 62 175 2.0 0.0 0.00 0.00 0.00 21 1004.2
20260904174522 61 205 2.0 0.0 0.00 0.00 0.00 26 1004.1
20260904173009 61 131 1.0 0.0 0.00 0.00 0.00 26 1004.6
20260904171507 60 141 1.0 0.0 0.00 0.00 0.00 26 1004.5
20260904170005 59 209 1.0 0.0 0.00 0.00 0.00 28 1003.9
20260904164505 59 196 1.0 0.0 0.00 0.00 0.00 29 1003.7
20260904163010 59 210 0.0 0.0 0.00 0.00 0.00 29 1003.9
20260904161501 58 206 1.0 0.0 0.00 0.00 0.00 30 1003.8
20260904160100 58 193 1.0 0.0 0.00 0.00 0.00 30 1004.2
20260904154559 57 196 1.0 0.0 0.00 0.00 0.00 31 1004.2
20260904153105 57 162 0.0 0.0 0.00 0.00 0.00 31 1004.0
20260904151555 56 188 0.0 0.0 0.00 0.00 0.00 32 1004.2
20260904150055 55 172 0.0 0.0 0.00 0.00 0.00 32 1004.2
20260904144554 54 179 0.0 0.0 0.00 0.00 0.00 33 1004.1
20260904143050 54 154 0.0 0.0 0.00 0.00 0.00 33 1004.5
20260904141548 53 167 0.0 0.0 0.00 0.00 0.00 34 1004.2
20260904140048 53 148 0.0 0.0 0.00 0.00 0.00 35 1003.9
20260904134547 53 144 0.0 0.0 0.00 0.00 0.00 35 1003.9
20260904133046 53 160 0.0 0.0 0.00 0.00 0.00 36 1003.9
20260904131545 53 165 0.0 0.0 0.00 0.00 0.00 36 1003.8
20260904130045 52 161 0.0 0.0 0.00 0.00 0.00 36 1002.7
20260904124555 52 144 0.0 0.0 0.00 0.00 0.00 36 1002.5
20260904123043 52 143 0.0 0.0 0.00 0.00 0.00 37 1002.4
20260904121542 52 145 0.0 0.0 0.00 0.00 0.00 37 1002.3
20260904120046 52 176 0.0 0.0 0.00 0.00 0.00 37 1001.4
20260904114544 52 144 0.0 0.0 0.00 0.00 0.00 38 1001.3
20260904113047 52 200 1.0 0.0 0.00 0.00 0.00 38 1001.4
20260904111538 52 164 0.0 0.0 0.00 0.00 0.00 39 1001.8
20260904110038 51 148 0.0 0.0 0.00 0.00 0.00 38 1001.4
20260904104537 52 184 0.0 0.0 0.00 0.00 0.00 39 1001.4
20260904103040 52 151 0.0 0.0 0.00 0.00 0.00 40 1001.4
20260904101534 52 141 0.0 0.0 0.00 0.00 0.00 40 1001.1
20260904100033 52 202 0.0 0.0 0.00 0.00 0.00 42 1000.6
20260904094534 51 179 0.0 0.0 0.00 0.00 0.00 44 1000.6
20260904093031 52 128 0.0 0.0 0.00 0.00 0.00 45 1000.7
20260904091531 52 162 0.0 0.0 0.00 0.00 0.00 45 1000.5
20260904090029 52 178 1.0 0.0 0.00 0.00 0.00 45 1000.1
20260904084529 52 181 1.0 0.0 0.00 0.00 0.00 45 1000.2
20260904083029 53 151 2.0 0.0 0.00 0.00 0.00 44 1000.2
20260904081525 53 162 1.0 0.0 0.00 0.00 0.00 42 1000.4
20260904080022 53 208 0.0 0.0 0.00 0.00 0.00 40 1001.3
20260904074524 53 167 1.0 0.0 0.00 0.00 0.00 39 1001.2
20260904073014 54 199 1.0 0.0 0.00 0.00 0.00 39 1001.3
20260904071509 54 171 1.0 0.0 0.00 0.00 0.00 37 1001.4
20260904070005 54 145 0.0 0.0 0.00 0.00 0.00 34 1001.6
20260904064601 54 145 0.0 0.0 0.00 0.00 0.00 36 1001.6
20260904063100 54 145 0.0 0.0 0.00 0.00 0.00 39 1001.4